Theta_e
345 347 349 350 351 352 353 355 355 355 355 353 352 352 353 353 354 353 354 356 354 355 356 353 351 353 352 356 356 350 342 342 342 338 333 333 336 338 336 335 333 334 336
346 345 348 350 351 351 353 354 355 356 356 354 353 352 352 351 351 351 354 356 355 355 355 357 355 355 354 355 355 350 340 334 337 338 335 335 334 337 334 337 337 339 338
347 347 347 349 350 351 354 355 356 355 357 354 355 356 356 356 354 353 352 352 355 356 357 359 359 358 358 352 350 343 340 335 334 338 339 340 338 337 336 334 337 336 336
347 349 349 350 351 352 353 355 357 357 357 357 355 355 353 352 353 354 352 353 355 356 358 360 359 358 351 348 346 340 339 339 335 338 338 338 339 341 340 334 332 332 331
346 348 349 350 351 351 352 354 357 358 358 358 357 356 357 352 355 355 356 357 357 358 356 357 354 351 349 348 343 339 338 336 340 337 337 337 336 334 336 336 331 329 327
348 346 346 348 349 350 351 353 356 359 360 359 360 358 356 357 355 355 356 355 354 354 355 354 352 350 346 343 340 339 340 341 341 339 337 334 332 331 330 331 329 327 324
351 349 348 347 349 349 350 351 354 359 360 360 359 360 359 359 359 359 357 355 353 353 352 350 349 344 342 341 340 340 341 341 340 338 334 331 329 328 328 327 326 326 325
350 351 350 348 347 349 350 352 353 358 361 360 360 360 359 358 358 358 356 357 357 354 349 348 346 343 342 340 339 339 340 340 337 334 333 330 326 323 323 323 324 328 327
348 349 350 349 348 348 349 352 354 358 360 360 360 360 360 359 356 356 359 359 358 353 349 344 334 343 342 340 339 339 340 338 334 331 329 326 323 322 323 325 326 327 330
345 348 350 350 349 349 349 351 353 357 359 359 360 360 360 359 359 358 359 359 357 353 350 340 335 342 341 339 339 338 338 334 330 327 327 326 323 323 323 324 326 328 328
343 345 347 348 349 349 350 351 353 354 358 359 358 359 359 359 360 359 360 360 355 354 346 339 341 342 341 338 340 339 334 332 330 329 326 325 324 323 323 327 328 328 327
342 345 346 346 348 348 349 351 352 354 356 358 358 359 359 360 360 360 360 358 356 353 339 342 342 342 338 338 339 338 330 331 329 328 326 325 323 323 323 327 328 327 327
347 346 346 348 348 348 348 350 352 354 356 358 359 360 360 361 361 361 361 357 353 349 344 345 343 340 339 339 339 335 331 331 330 328 326 325 324 323 326 329 327 326 326
351 349 350 353 349 349 349 350 351 353 355 357 358 360 361 361 361 361 360 356 353 350 346 344 341 340 339 339 337 332 332 332 329 328 327 325 322 322 327 326 325 325 326
353 353 354 355 353 352 352 352 353 354 355 358 359 360 361 361 360 360 359 356 354 347 344 343 341 339 339 337 335 331 332 331 330 329 327 322 321 323 324 323 324 323 323
351 353 355 357 358 355 355 354 355 356 357 359 361 361 362 360 359 357 356 353 348 346 344 342 339 339 336 334 330 328 331 331 330 329 325 321 320 323 324 323 319 319 321
347 353 355 357 357 357 356 356 357 359 361 362 363 363 360 357 354 352 352 349 348 347 344 339 338 337 336 333 328 326 329 330 330 327 321 320 320 323 324 318 319 324 323
343 351 353 354 355 355 356 357 360 362 363 363 362 357 354 353 351 350 351 351 348 344 339 338 337 337 337 333 327 326 328 330 328 322 320 320 322 323 316 314 320 324 323
345 351 350 352 354 356 359 361 361 360 361 360 358 355 354 353 351 350 349 346 342 340 338 337 337 337 335 333 327 328 329 328 323 320 320 321 322 318 312 313 319 321 322
350 352 351 354 356 359 359 359 360 359 358 358 357 354 354 353 351 349 345 343 341 339 336 337 337 336 334 332 329 326 327 323 320 318 318 319 318 313 311 311 316 317 317
351 352 352 354 356 357 357 356 354 353 353 353 354 353 353 352 351 346 343 341 340 338 337 337 336 334 335 331 326 321 318 319 316 317 316 316 316 311 311 309 312 311 314
354 353 354 354 353 351 348 348 350 351 352 353 353 353 353 352 348 345 343 341 339 339 338 337 335 334 333 329 319 312 310 309 315 315 314 314 310 307 310 310 309 312 314
349 347 349 350 351 350 349 349 350 351 350 351 352 350 350 348 347 344 342 340 339 337 336 336 334 333 333 319 313 310 309 311 311 312 309 304 304 304 310 310 310 312 313
342 339 337 338 339 343 348 351 349 348 347 347 348 348 348 346 345 343 342 340 338 336 335 334 334 333 330 323 319 317 316 314 312 311 311 305 305 305 306 309 310 310 311
330 330 330 331 333 334 335 339 345 347 348 347 346 347 345 345 343 339 339 338 337 336 335 333 333 330 328 320 317 315 313 310 307 308 308 306 305 305 304 306 308 308 309
329 329 330 330 331 333 334 336 338 341 344 344 341 340 340 340 338 333 332 334 331 329 327 326 328 322 321 312 309 307 306 304 305 307 306 305 304 303 303 304 305 306 306
Wind_Speed
19 21 21 20 19 19 19 19 19 18 17 17 16 16 15 13 13 12 11 10 9 9 8 7 7 8 8 9 9 10 12 12 12 15 16 14 7 4 6 13 9 11 10
18 22 23 23 23 22 21 21 20 19 18 17 16 15 14 13 13 12 12 12 11 10 9 9 9 8 10 8 8 8 10 11 9 11 15 6 7 3 19 8 10 5 13
20 19 23 25 25 25 24 24 23 21 21 19 17 15 14 13 13 14 15 14 11 9 9 8 8 9 9 10 6 7 8 11 9 6 6 5 6 17 3 13 8 15 14
20 20 25 27 28 27 25 25 24 24 23 22 20 19 17 17 14 12 10 9 10 9 8 8 8 7 6 6 6 6 6 7 9 7 5 7 12 8 9 13 20 15 18
22 23 26 30 30 29 28 27 26 26 26 25 24 22 20 18 15 12 10 10 8 8 8 8 7 6 7 5 4 5 6 6 7 8 9 10 11 11 10 15 20 23 19
22 21 28 29 30 31 31 29 28 29 29 28 27 26 22 20 16 14 12 10 9 8 7 6 7 6 5 6 4 6 5 6 7 8 9 11 13 14 15 12 19 23 25
22 22 23 28 30 32 32 31 30 29 29 30 29 28 28 25 21 18 15 12 12 10 11 13 9 7 7 7 7 6 5 5 7 8 9 10 13 15 18 21 20 16 26
23 24 26 32 33 33 33 32 31 31 29 31 31 31 29 27 24 22 19 16 15 16 17 15 10 6 7 8 9 9 6 5 7 7 7 11 14 16 18 20 21 14 19
22 26 25 32 34 34 36 36 33 32 33 32 31 33 31 29 25 23 19 20 22 22 21 19 13 7 7 8 10 10 8 6 6 6 7 11 16 17 20 21 22 22 15
18 21 24 31 34 34 35 34 34 34 32 31 34 31 30 28 27 24 24 21 22 23 22 13 11 7 8 7 11 12 7 6 6 7 10 12 16 19 20 21 22 24 26
15 18 21 30 33 32 31 33 33 32 31 31 31 27 27 28 26 26 25 27 23 25 20 14 8 8 9 10 12 11 7 7 7 8 11 15 17 20 22 22 23 25 28
10 14 18 24 28 32 31 31 31 30 31 27 26 26 25 25 28 30 29 25 25 26 22 12 9 10 10 12 13 11 8 8 8 11 13 17 19 22 21 22 24 28 29
9 12 15 17 22 25 28 27 27 27 24 23 23 23 23 25 28 28 26 25 28 22 17 11 11 11 12 12 12 9 9 9 9 12 14 18 20 22 23 23 25 28 32
10 12 14 14 19 21 22 23 23 22 22 22 22 22 24 25 24 25 23 23 21 19 16 12 11 12 12 11 11 10 10 10 11 13 15 18 19 21 22 22 26 29 34
13 14 14 13 17 20 20 21 21 21 20 20 19 20 18 19 21 21 19 18 18 14 13 12 11 12 12 12 11 10 9 10 12 15 17 19 20 22 16 23 26 31 34
15 14 15 15 15 22 22 21 20 20 18 17 15 14 15 16 17 18 16 17 16 16 13 13 13 12 12 12 14 11 9 11 13 15 18 19 20 15 22 25 30 30 33
15 15 16 16 18 19 19 18 16 16 17 16 13 11 11 12 14 17 18 18 17 16 14 13 13 12 11 11 12 13 10 12 13 15 17 18 18 19 20 26 29 27 29
15 11 12 15 17 17 18 19 18 17 16 14 12 13 13 14 15 18 16 16 15 15 14 13 12 12 12 13 12 12 10 12 13 14 15 16 16 16 22 24 26 27 27
11 10 15 18 20 20 21 22 20 18 17 16 14 14 14 15 16 15 12 12 12 13 13 13 13 14 12 13 12 11 9 11 13 13 13 12 13 16 21 22 22 26 25
10 13 17 21 21 22 21 21 19 18 17 15 14 14 16 18 19 17 16 14 13 14 14 13 13 12 10 11 12 8 7 10 13 14 11 11 8 16 17 17 19 23 24
11 18 19 21 21 22 22 21 20 18 18 18 17 18 21 24 24 28 24 17 14 13 13 12 11 10 10 9 9 5 5 8 12 13 12 11 15 16 14 14 16 18 21
15 19 21 22 21 19 19 18 16 12 12 9 10 12 15 18 19 21 22 16 15 14 12 12 12 10 8 10 7 3 3 7 8 11 11 11 16 15 12 14 19 18 18
19 21 23 23 21 17 17 18 14 13 10 8 6 8 13 15 18 18 18 17 16 14 14 14 11 8 9 6 6 3 3 5 6 8 9 12 12 13 10 14 19 17 18
19 21 22 20 20 19 18 17 12 11 11 10 5 8 13 15 16 17 16 15 15 15 12 11 9 10 9 8 6 3 2 6 7 8 6 9 8 11 12 12 14 15 17
21 20 21 19 18 17 16 13 12 11 10 8 10 11 14 11 9 9 9 7 8 10 10 7 6 6 8 7 8 4 2 4 5 5 6 8 10 11 13 13 14 16 18
20 21 21 20 18 16 15 12 9 8 10 11 9 6 2 14 13 11 10 10 8 10 8 7 5 5 11 13 10 8 6 6 5 5 7 9 11 12 13 14 15 16 18
Wind_Direction
199 195 197 199 202 204 206 208 206 206 205 209 213 215 222 230 238 243 242 248 264 277 290 292 296 303 302 317 323 325 326 326 333 328 334 320 294 336 338 312 307 308 298
202 198 197 200 203 203 205 206 208 208 205 209 214 221 228 236 242 242 243 252 263 274 274 281 290 295 303 309 321 332 328 323 342 328 318 329 315 318 325 320 319 334 317
202 197 199 203 205 206 205 206 207 207 206 209 215 220 229 239 238 238 245 249 248 251 257 270 279 283 293 310 316 328 327 326 328 344 326 332 343 329 302 320 319 316 315
208 202 202 204 208 208 209 210 209 209 209 208 215 217 225 230 233 236 237 236 228 229 242 253 258 261 273 292 311 320 316 316 324 328 328 315 310 322 315 314 315 308 310
206 208 205 207 208 209 211 212 212 211 211 209 212 218 225 230 233 230 227 225 223 234 237 236 236 248 271 263 288 299 302 307 312 324 319 318 302 311 300 307 312 311 309
204 206 210 209 211 212 212 213 211 211 212 210 213 215 222 225 228 223 226 231 224 231 233 250 259 261 282 283 278 275 279 295 301 308 313 317 317 312 310 301 302 306 308
207 205 206 207 209 212 212 213 212 213 213 213 214 215 219 222 224 225 226 229 217 221 229 236 229 281 287 277 275 264 268 278 296 304 312 310 307 306 302 298 298 301 303
208 209 206 205 209 211 211 212 210 211 214 214 213 214 217 221 224 225 226 222 216 215 240 234 236 257 263 269 266 267 259 268 288 293 307 310 309 309 304 298 301 297 298
213 210 209 209 208 208 210 212 211 210 214 211 211 215 216 217 220 220 219 221 212 232 232 229 233 236 236 253 258 265 263 262 269 289 298 308 314 311 307 299 296 299 301
217 212 208 209 209 209 210 211 213 213 213 212 216 215 216 217 219 217 215 216 221 228 233 227 243 224 217 234 251 260 253 256 268 294 307 311 313 311 310 307 300 300 299
222 213 209 206 210 209 208 209 211 214 216 217 219 218 218 216 214 215 217 214 213 222 226 240 235 218 220 232 246 253 251 249 271 294 301 308 313 313 313 309 301 307 310
236 208 203 200 202 209 207 207 210 211 216 217 218 219 218 215 213 213 210 210 208 214 215 229 217 220 220 231 238 239 243 252 280 298 303 310 317 315 313 310 310 309 308
230 205 195 197 197 202 207 209 207 212 214 213 215 217 216 213 216 217 212 210 210 200 203 209 212 216 224 230 233 236 243 257 278 294 304 310 315 314 316 312 309 310 312
213 203 195 192 191 194 200 202 206 207 207 209 212 214 215 217 219 221 219 214 207 203 200 200 214 220 224 226 230 235 245 261 281 294 301 309 311 313 313 313 313 313 312
220 199 197 190 190 191 193 194 194 196 198 202 208 215 218 218 217 216 216 214 203 196 195 203 204 211 217 223 227 237 256 269 282 294 304 311 309 311 311 314 312 314 310
232 205 193 189 190 188 187 190 186 184 186 194 203 206 207 203 204 201 202 196 190 194 193 193 196 207 220 224 231 231 258 270 280 295 306 314 313 322 318 316 317 317 303
235 204 196 189 187 186 179 170 175 173 178 181 185 184 179 174 184 183 182 183 195 194 188 188 198 209 217 233 239 242 252 273 288 300 309 311 316 322 320 323 325 322 325
261 214 191 180 176 172 167 155 159 162 163 162 154 155 160 166 168 172 172 180 179 180 181 189 196 209 216 232 233 244 253 271 285 301 306 309 315 318 321 328 326 326 330
240 198 180 168 161 159 155 147 147 154 154 146 150 155 158 155 155 162 170 170 175 177 183 192 198 204 213 227 229 239 253 277 293 304 308 309 312 313 326 334 327 328 334
182 174 168 150 147 144 144 139 141 146 138 133 137 149 158 161 161 161 161 170 187 183 184 193 202 204 204 218 224 237 273 289 302 307 314 303 314 324 332 341 333 332 337
160 141 146 136 135 138 136 138 143 133 133 143 155 165 169 167 171 164 156 171 185 183 190 186 193 197 201 210 216 233 280 301 308 315 320 319 320 324 328 353 340 336 346
134 126 126 123 123 128 133 127 106 111 114 124 153 166 178 159 167 157 138 164 179 181 180 186 196 192 191 197 195 229 293 313 307 318 323 320 314 324 336 345 349 2 359
121 117 112 105 99 103 109 103 103 104 106 116 143 164 167 153 172 145 148 162 178 186 196 197 202 199 189 180 183 187 344 335 328 325 319 341 349 347 340 348 359 4 1
109 108 100 90 86 85 83 92 99 102 104 105 138 185 164 168 164 150 169 171 180 198 200 196 205 210 185 176 179 169 269 331 329 321 326 336 356 5 359 357 2 8 8
107 102 97 92 87 85 85 87 95 105 114 138 157 161 157 165 151 147 153 176 163 201 203 196 210 175 188 154 154 132 48 356 338 344 347 359 10 10 8 5 8 9 10
98 95 95 96 93 88 86 83 90 114 134 134 122 110 185 150 161 159 144 154 149 163 158 166 168 98 152 152 127 103 72 50 43 16 13 15 18 14 10 6 7 12 10